Location: Newark
(31.5350°N, 35.0986°E)
Time: 15:57:14
(UTC+00:00)

SR - Pass Details

Date: 24 October 2019
Orbit: 574 x 882 km, 66.7° (Epoch: 16 November)

Event Time Altitude Azimuth Distance (km) Brightness Sun altitude
Rises 05:35:01 0° 312° (NW) 3,482 ? 20.3°
Reaches altitude 10° 05:38:32 10° 292° (WNW) 2,532 ? 20.9°
Maximum altitude 05:41:54 16° 257° (WSW) 2,121 ? 21.5°
Drops below altitude 10° 05:45:14 10° 221° (SW) 2,472 ? 22.2°
Sets 05:48:37 0° 200° (SSW) 3,357 ? 22.8°
